2015-11-26 00:00:57 r, 15.68m,0000000045Hz,0000010263c,0000000.022s, 005.4C,00002191
2015-11-26 00:10:57 r, 15.72m,0000000044Hz,0000010659c,0000000.023s, 005.4C,00002191
2015-11-26 00:20:56 r, 15.70m,0000000044Hz,0000010441c,0000000.023s, 005.4C,00002191
2015-11-26 00:30:57 r, 15.75m,0000000042Hz,0000010960c,0000000.024s, 005.4C,00002191
2015-11-26 00:40:59 r, 15.73m,0000000043Hz,0000010809c,0000000.023s, 005.4C,00002191
2015-11-26 00:50:56 r, 15.70m,0000000044Hz,0000010493c,0000000.023s, 005.4C,00002191
2015-11-26 01:00:57 r, 15.71m,0000000043Hz,0000010528c,0000000.023s, 005.4C,00002191
2015-11-26 01:10:56 r, 15.61m,0000000047Hz,0000009649c,0000000.021s, 005.4C,00002191
2015-11-26 01:20:57 r, 15.65m,0000000045Hz,0000010039c,0000000.022s, 005.4C,00002191
2015-11-26 01:30:57 r, 15.69m,0000000045Hz,0000010418c,0000000.023s, 005.4C,00002191
2015-11-26 01:40:58 r, 15.80m,0000000040Hz,0000011518c,0000000.025s, 005.4C,00002191
2015-11-26 01:50:57 r, 15.83m,0000000039Hz,0000011764c,0000000.026s, 005.4C,00002191
2015-11-26 02:00:57 r, 15.88m,0000000038Hz,0000012303c,0000000.027s, 005.4C,00002191
2015-11-26 02:10:58 r, 15.88m,0000000038Hz,0000012322c,0000000.027s, 005.4C,00002191
2015-11-26 02:20:57 r, 15.94m,0000000036Hz,0000013031c,0000000.028s, 005.4C,00002191
2015-11-26 02:30:57 r, 15.91m,0000000036Hz,0000012697c,0000000.028s, 005.8C,00002191
2015-11-26 02:40:58 r, 15.96m,0000000034Hz,0000013304c,0000000.029s, 005.8C,00002191
2015-11-26 02:50:57 r, 16.00m,0000000034Hz,0000013797c,0000000.030s, 005.8C,00002191
2015-11-26 03:00:57 r, 16.03m,0000000033Hz,0000014141c,0000000.031s, 005.4C,00002191
2015-11-26 03:10:57 r, 16.08m,0000000032Hz,0000014787c,0000000.032s, 005.4C,00002191
2015-11-26 03:20:57 r, 16.12m,0000000030Hz,0000015360c,0000000.033s, 005.4C,00002191
2015-11-26 03:30:57 r, 16.16m,0000000029Hz,0000015926c,0000000.035s, 005.4C,00002191
2015-11-26 03:40:56 r, 16.16m,0000000029Hz,0000015936c,0000000.035s, 005.4C,00002191
2015-11-26 03:50:56 r, 16.26m,0000000026Hz,0000017450c,0000000.038s, 005.4C,00002191
2015-11-26 04:00:56 r, 16.30m,0000000025Hz,0000018219c,0000000.040s, 005.4C,00002191
2015-11-26 04:10:56 r, 16.30m,0000000025Hz,0000018184c,0000000.039s, 005.4C,00002191
2015-11-26 04:20:57 r, 16.35m,0000000024Hz,0000019070c,0000000.041s, 005.4C,00002191
2015-11-26 04:30:56 r, 16.41m,0000000023Hz,0000020147c,0000000.044s, 005.4C,00002191
2015-11-26 04:40:57 r, 16.52m,0000000021Hz,0000022191c,0000000.048s, 005.4C,00002191
2015-11-26 04:50:57 r, 16.55m,0000000020Hz,0000022874c,0000000.050s, 005.4C,00002191
2015-11-26 05:00:56 r, 16.63m,0000000019Hz,0000024467c,0000000.053s, 005.4C,00002191
2015-11-26 05:10:56 r, 16.71m,0000000017Hz,0000026440c,0000000.057s, 005.4C,00002191
2015-11-26 05:20:57 r, 16.69m,0000000018Hz,0000026037c,0000000.057s, 005.4C,00002191
2015-11-26 05:30:56 r, 16.84m,0000000015Hz,0000029774c,0000000.065s, 005.4C,00002191
2015-11-26 05:40:56 r, 16.98m,0000000014Hz,0000033943c,0000000.074s, 005.4C,00002191
2015-11-26 05:50:57 r, 16.98m,0000000013Hz,0000034038c,0000000.074s, 005.4C,00002191
2015-11-26 06:00:57 r, 17.18m,0000000012Hz,0000040709c,0000000.088s, 005.4C,00002191
2015-11-26 06:10:56 r, 17.32m,0000000010Hz,0000046337c,0000000.101s, 005.4C,00002191
2015-11-26 06:20:57 r, 17.65m,0000000007Hz,0000063108c,0000000.137s, 005.1C,00002191
2015-11-26 06:30:56 r, 17.54m,0000000008Hz,0000056685c,0000000.123s, 005.1C,00002191
2015-11-26 06:40:57 r, 17.54m,0000000008Hz,0000056881c,0000000.123s, 004.8C,00002191
2015-11-26 06:50:56 r, 17.16m,0000000011Hz,0000040421c,0000000.088s, 004.8C,00002191
2015-11-26 07:00:57 r, 16.12m,0000000030Hz,0000015348c,0000000.033s, 004.5C,00002191
2015-11-26 07:10:57 r, 14.55m,0000000128Hz,0000000000c,0000000.000s, 004.5C,00002191
2015-11-26 07:20:57 r, 12.77m,0000000659Hz,0000000000c,0000000.000s, 004.1C,00002191
2015-11-26 07:30:57 r, 10.78m,0000004134Hz,0000000000c,0000000.000s, 004.1C,00002191
2015-11-26 07:40:57 r, 08.94m,0000022405Hz,0000000000c,0000000.000s, 004.1C,00002191
2015-11-26 07:50:56 r, 07.75m,0000067088Hz,0000000000c,0000000.000s, 003.8C,00002191
2015-11-26 08:00:56 r, 06.89m,0000148002Hz,0000000000c,0000000.000s, 003.8C,00002191
2015-11-26 08:10:57 r, 06.28m,0000260895Hz,0000000000c,0000000.000s, 003.8C,00002191
2015-11-26 08:20:56 r, 00.00m,0000434346Hz,0000000000c,0000000.000s, 003.8C,00002191
2015-11-26 08:30:56 r, 00.00m,0000597694Hz,0000000000c,0000000.000s, 004.1C,00002191
2015-11-26 08:40:58 r, 00.00m,0000597765Hz,0000000000c,0000000.000s, 004.1C,00002191
2015-11-26 08:50:57 r, 00.00m,0000597729Hz,0000000000c,0000000.000s, 004.5C,00002191
2015-11-26 09:00:57 r, 00.00m,0000597801Hz,0000000000c,0000000.000s, 004.5C,00002191
2015-11-26 09:10:56 r, 00.00m,0000597734Hz,0000000000c,0000000.000s, 004.5C,00002191
2015-11-26 09:20:56 r, 00.00m,0000597709Hz,0000000000c,0000000.000s, 004.5C,00002191
2015-11-26 09:30:56 r, 00.00m,0000597729Hz,0000000000c,0000000.000s, 004.5C,00002191
2015-11-26 09:40:58 r, 00.00m,0000597697Hz,0000000000c,0000000.000s, 005.1C,00002191
2015-11-26 09:50:56 r, 00.00m,0000597639Hz,0000000000c,0000000.000s, 006.1C,00002191
2015-11-26 10:00:56 r, 00.00m,0000597541Hz,0000000000c,0000000.000s, 007.0C,00002191
2015-11-26 10:10:56 r, 00.00m,0000597490Hz,0000000000c,0000000.000s, 007.7C,00002191
2015-11-26 10:20:56 r, 00.00m,0000597401Hz,0000000000c,0000000.000s, 008.3C,00002191
2015-11-26 10:30:56 r, 00.00m,0000597409Hz,0000000000c,0000000.000s, 008.7C,00002191
2015-11-26 10:40:57 r, 00.00m,0000597379Hz,0000000000c,0000000.000s, 009.3C,00002191
2015-11-26 10:50:56 r, 00.00m,0000597226Hz,0000000000c,0000000.000s, 009.9C,00002191
2015-11-26 11:00:56 r, 00.00m,0000597113Hz,0000000000c,0000000.000s, 011.2C,00002191
2015-11-26 11:10:57 r, 00.00m,0000597155Hz,0000000000c,0000000.000s, 011.2C,00002191
2015-11-26 11:20:57 r, 00.00m,0000597155Hz,0000000000c,0000000.000s, 010.9C,00002191
2015-11-26 11:30:57 r, 00.00m,0000597113Hz,0000000000c,0000000.000s, 010.9C,00002191
2015-11-26 11:40:57 r, 00.00m,0000597211Hz,0000000000c,0000000.000s, 010.9C,00002191
2015-11-26 11:50:56 r, 00.00m,0000597119Hz,0000000000c,0000000.000s, 010.9C,00002191
2015-11-26 12:00:57 r, 00.00m,0000597115Hz,0000000000c,0000000.000s, 010.9C,00002191
2015-11-26 12:10:57 r, 00.00m,0000597355Hz,0000000000c,0000000.000s, 008.7C,00002191
2015-11-26 12:20:57 r, 00.00m,0000597530Hz,0000000000c,0000000.000s, 007.0C,00002191
2015-11-26 12:30:57 r, 00.00m,0000597521Hz,0000000000c,0000000.000s, 006.4C,00002191
2015-11-26 12:40:56 r, 00.00m,0000597604Hz,0000000000c,0000000.000s, 006.1C,00002191
2015-11-26 12:50:57 r, 00.00m,0000597573Hz,0000000000c,0000000.000s, 005.4C,00002191
2015-11-26 13:00:57 r, 00.00m,0000597704Hz,0000000000c,0000000.000s, 005.1C,00002191
2015-11-26 13:10:57 r, 00.00m,0000597726Hz,0000000000c,0000000.000s, 005.1C,00002191
2015-11-26 13:20:57 r, 00.00m,0000597752Hz,0000000000c,0000000.000s, 005.1C,00002191
2015-11-26 13:30:57 r, 00.00m,0000597685Hz,0000000000c,0000000.000s, 004.8C,00002191
2015-11-26 13:40:58 r, 00.00m,0000597753Hz,0000000000c,0000000.000s, 004.8C,00002191
2015-11-26 13:50:56 r, 00.00m,0000597745Hz,0000000000c,0000000.000s, 004.5C,00002191
2015-11-26 14:00:57 r, 00.00m,0000597756Hz,0000000000c,0000000.000s, 004.8C,00002191
2015-11-26 14:10:56 r, 00.00m,0000597727Hz,0000000000c,0000000.000s, 004.8C,00002191
2015-11-26 14:20:57 r, 00.00m,0000597712Hz,0000000000c,0000000.000s, 004.8C,00002191
2015-11-26 14:30:56 r, 00.00m,0000597672Hz,0000000000c,0000000.000s, 004.8C,00002191
2015-11-26 14:40:56 r, 00.00m,0000597766Hz,0000000000c,0000000.000s, 004.8C,00002191
2015-11-26 14:50:57 r, 00.00m,0000597666Hz,0000000000c,0000000.000s, 004.8C,00002191
2015-11-26 15:00:57 r, 00.00m,0000597790Hz,0000000000c,0000000.000s, 004.8C,00002191
2015-11-26 15:10:56 r, 00.00m,0000597749Hz,0000000000c,0000000.000s, 004.5C,00002191
2015-11-26 15:20:57 r, 00.00m,0000597833Hz,0000000000c,0000000.000s, 004.8C,00002191
2015-11-26 15:30:56 r, 00.00m,0000597735Hz,0000000000c,0000000.000s, 005.4C,00002191
2015-11-26 15:40:57 r, 00.00m,0000597668Hz,0000000000c,0000000.000s, 006.1C,00002191
2015-11-26 15:50:56 r, 00.00m,0000500925Hz,0000000000c,0000000.000s, 006.1C,00002191
2015-11-26 16:00:57 r, 00.00m,0000400209Hz,0000000000c,0000000.000s, 006.1C,00002191
2015-11-26 16:10:56 r, 06.14m,0000296641Hz,0000000000c,0000000.000s, 005.8C,00002191
2015-11-26 16:20:56 r, 06.59m,0000196534Hz,0000000000c,0000000.000s, 005.1C,00002191
2015-11-26 16:30:57 r, 07.22m,0000109692Hz,0000000000c,0000000.000s, 004.5C,00002191
2015-11-26 16:40:56 r, 08.13m,0000047376Hz,0000000000c,0000000.000s, 003.2C,00002191
2015-11-26 16:50:56 r, 09.42m,0000014393Hz,0000000000c,0000000.000s, 001.9C,00002191
2015-11-26 17:00:56 r, 11.15m,0000002912Hz,0000000000c,0000000.000s, 000.9C,00002191
2015-11-26 17:10:57 r, 13.14m,0000000471Hz,0000000000c,0000000.000s, 000.1C,00002191
2015-11-26 17:20:58 r, 15.04m,0000000081Hz,0000005672c,0000000.012s,-000.4C,00002191
2015-11-26 17:30:57 r, 16.71m,0000000017Hz,0000026548c,0000000.058s,-000.7C,00002191
2015-11-26 17:40:57 r, 18.14m,0000000005Hz,0000098703c,0000000.214s,-001.0C,00002191
2015-11-26 17:50:57 r, 19.21m,0000000002Hz,0000261217c,0000000.567s,-001.3C,00002191
2015-11-26 18:00:56 r, 19.64m,0000000002Hz,0000390804c,0000000.848s,-001.3C,00002191
2015-11-26 18:10:57 r, 19.64m,0000000001Hz,0000389703c,0000000.846s,-001.7C,00002191
2015-11-26 18:20:56 r, 19.50m,0000000001Hz,0000342133c,0000000.742s,-002.0C,00002191
2015-11-26 18:30:56 r, 19.27m,0000000002Hz,0000277407c,0000000.602s,-002.0C,00002191
2015-11-26 18:40:56 r, 19.09m,0000000002Hz,0000236188c,0000000.513s,-002.3C,00002191
2015-11-26 18:50:56 r, 18.94m,0000000002Hz,0000205631c,0000000.446s,-002.6C,00002191
2015-11-26 19:00:56 r, 18.81m,0000000003Hz,0000180791c,0000000.392s,-002.6C,00002191
2015-11-26 19:10:56 r, 18.67m,0000000003Hz,0000160362c,0000000.348s,-002.6C,00002191
2015-11-26 19:20:56 r, 18.55m,0000000003Hz,0000144991c,0000000.315s,-002.6C,00002191
2015-11-26 19:30:57 r, 18.46m,0000000003Hz,0000132650c,0000000.288s,-003.0C,00002191
2015-11-26 19:40:56 r, 18.36m,0000000003Hz,0000121065c,0000000.263s,-003.0C,00002191
2015-11-26 19:50:56 r, 18.27m,0000000005Hz,0000111407c,0000000.242s,-003.0C,00002191
2015-11-26 20:00:56 r, 18.18m,0000000005Hz,0000102485c,0000000.222s,-003.0C,00002191
2015-11-26 20:10:56 r, 18.11m,0000000005Hz,0000095889c,0000000.208s,-003.0C,00002191
2015-11-26 20:20:56 r, 18.02m,0000000006Hz,0000088441c,0000000.192s,-003.0C,00002191
2015-11-26 20:30:56 r, 17.94m,0000000006Hz,0000082732c,0000000.180s,-003.3C,00002191
2015-11-26 20:40:56 r, 17.87m,0000000006Hz,0000077671c,0000000.169s,-003.3C,00002191
2015-11-26 20:50:56 r, 17.72m,0000000006Hz,0000067502c,0000000.146s,-003.3C,00002191
2015-11-26 21:00:56 r, 17.63m,0000000007Hz,0000061688c,0000000.134s,-003.3C,00002191
2015-11-26 21:10:56 r, 17.64m,0000000007Hz,0000062487c,0000000.136s,-003.3C,00002191
2015-11-26 21:20:58 r, 17.11m,0000000012Hz,0000038419c,0000000.083s,-003.3C,00002191
2015-11-26 21:30:56 r, 16.96m,0000000014Hz,0000033450c,0000000.073s,-003.0C,00002191
2015-11-26 21:40:56 r, 16.61m,0000000019Hz,0000024087c,0000000.052s,-002.3C,00002191
2015-11-26 21:50:56 r, 16.62m,0000000019Hz,0000024318c,0000000.053s,-001.7C,00002191
2015-11-26 22:00:56 r, 16.59m,0000000019Hz,0000023799c,0000000.052s,-001.0C,00002191
2015-11-26 22:10:56 r, 16.56m,0000000020Hz,0000022930c,0000000.050s,-000.4C,00002191
2015-11-26 22:20:56 r, 16.44m,0000000022Hz,0000020751c,0000000.045s, 000.3C,00002191
2015-11-26 22:30:56 r, 16.42m,0000000023Hz,0000020296c,0000000.044s, 000.6C,00002191
2015-11-26 22:40:56 r, 16.38m,0000000023Hz,0000019475c,0000000.042s, 000.9C,00002191
2015-11-26 22:50:57 r, 16.29m,0000000026Hz,0000017966c,0000000.039s, 001.2C,00002191
2015-11-26 23:00:56 r, 16.28m,0000000026Hz,0000017798c,0000000.039s, 001.6C,00002191
2015-11-26 23:10:56 r, 16.22m,0000000027Hz,0000017009c,0000000.037s, 001.6C,00002191
2015-11-26 23:20:56 r, 16.15m,0000000030Hz,0000015758c,0000000.034s, 001.9C,00002191
2015-11-26 23:30:56 r, 16.13m,0000000029Hz,0000015541c,0000000.034s, 002.2C,00002191
2015-11-26 23:40:56 r, 16.01m,0000000033Hz,0000013940c,0000000.030s, 002.2C,00002191
2015-11-26 23:50:57 r, 15.93m,0000000036Hz,0000012919c,0000000.028s, 002.2C,00002191
